Вернуться в каталог

SL-12 R/B(2)

АктивенGEO
NORAD 26939·ROCKET BODY·🇷🇺 Russia

Запущен Oct 6, 2001 с Baikonur Cosmodrome

Loading…

TLE

СвежийSource: Space-Track

Эпоха: Aug 29, 2026, 21:58 UTC

1 26939U 01045D   26241.91528713  .00000105  00000-0  00000+0 0  9995
2 26939  13.9445  11.5149 0025288  31.2789 312.6322  1.00249947 91468

Отслеживайте SL-12 R/B(2) в реальном времени с AllMySat

Download on the App Store